Time,TemperatureF,DewpointF,PressureIn,WindDirection,WindDirectionDegrees,WindSpeedMPH,WindSpeedGustMPH,Humidity,HourlyPrecipIn,Conditions,Clouds,dailyrainin,SoftwareType,DateUTC
2013-05-13 00:02:00,62.2,52.3,30.17,SSE,153,0.0,0.0,70,0.00,,,0.00,meteohub,2013-05-13 05:02:00,
2013-05-13 00:07:00,61.9,52.3,30.18,SSE,153,0.0,0.0,71,0.00,,,0.00,meteohub,2013-05-13 05:07:00,
2013-05-13 00:12:00,61.7,52.2,30.18,SSE,153,0.0,0.0,71,0.00,,,0.00,meteohub,2013-05-13 05:12:00,
2013-05-13 00:17:00,61.5,52.3,30.18,SSE,153,0.0,0.0,72,0.00,,,0.00,meteohub,2013-05-13 05:17:00,
2013-05-13 00:22:00,61.3,52.2,30.18,SSE,153,0.0,0.0,72,0.00,,,0.00,meteohub,2013-05-13 05:22:00,
2013-05-13 00:27:00,61.2,52.0,30.18,SSE,153,0.0,0.0,72,0.00,,,0.00,meteohub,2013-05-13 05:27:00,
2013-05-13 00:32:00,61.2,52.0,30.18,SSE,153,0.0,0.0,72,0.00,,,0.00,meteohub,2013-05-13 05:32:00,
2013-05-13 00:37:00,61.0,52.3,30.18,SSE,153,0.0,0.0,73,0.00,,,0.00,meteohub,2013-05-13 05:37:00,
2013-05-13 00:42:00,60.6,52.0,30.18,SSE,153,0.0,0.0,73,0.00,,,0.00,meteohub,2013-05-13 05:42:00,
2013-05-13 00:47:00,60.4,51.8,30.18,SSE,153,0.0,0.0,73,0.00,,,0.00,meteohub,2013-05-13 05:47:00,
2013-05-13 00:52:00,60.4,51.8,30.18,SSE,153,0.0,0.0,73,0.00,,,0.00,meteohub,2013-05-13 05:52:00,
2013-05-13 00:57:00,60.3,52.0,30.17,SSE,153,0.0,0.0,74,0.00,,,0.00,meteohub,2013-05-13 05:57:00,
2013-05-13 01:02:00,60.3,51.6,30.18,SSE,153,0.0,0.0,73,0.00,,,0.00,meteohub,2013-05-13 06:02:00,
2013-05-13 01:07:00,60.1,51.4,30.17,SSE,153,0.0,0.0,73,0.00,,,0.00,meteohub,2013-05-13 06:07:00,
2013-05-13 01:12:00,60.1,51.1,30.17,SSE,153,0.0,0.0,72,0.00,,,0.00,meteohub,2013-05-13 06:12:00,
2013-05-13 01:17:00,60.1,51.1,30.17,SSE,153,0.0,0.0,72,0.00,,,0.00,meteohub,2013-05-13 06:17:00,
2013-05-13 01:22:00,59.9,50.9,30.17,SSE,153,0.0,0.0,72,0.00,,,0.00,meteohub,2013-05-13 06:22:00,
2013-05-13 01:27:00,59.7,50.7,30.17,SSE,153,0.0,0.0,72,0.00,,,0.00,meteohub,2013-05-13 06:27:00,
2013-05-13 01:32:00,59.5,50.5,30.17,SSE,153,0.0,0.0,72,0.00,,,0.00,meteohub,2013-05-13 06:32:00,
2013-05-13 01:37:00,59.5,50.5,30.17,SSE,153,0.0,0.0,72,0.00,,,0.00,meteohub,2013-05-13 06:37:00,
2013-05-13 01:42:00,59.5,50.5,30.17,SSE,153,0.0,0.0,72,0.00,,,0.00,meteohub,2013-05-13 06:42:00,
2013-05-13 01:47:00,59.5,50.2,30.17,SSE,153,0.0,0.0,71,0.00,,,0.00,meteohub,2013-05-13 06:47:00,
2013-05-13 01:52:00,59.5,49.8,30.17,SSE,153,0.0,0.0,70,0.00,,,0.00,meteohub,2013-05-13 06:52:00,
2013-05-13 01:57:00,59.5,49.8,30.17,SSE,153,0.0,0.0,70,0.00,,,0.00,meteohub,2013-05-13 06:57:00,
2013-05-13 02:02:00,59.5,49.8,30.17,SSE,153,0.0,0.0,70,0.00,,,0.00,meteohub,2013-05-13 07:02:00,
2013-05-13 02:07:00,59.5,49.8,30.17,SSE,153,0.0,1.0,70,0.00,,,0.00,meteohub,2013-05-13 07:07:00,
2013-05-13 02:12:00,59.4,49.1,30.16,SSE,153,0.0,1.0,69,0.00,,,0.00,meteohub,2013-05-13 07:12:00,
2013-05-13 02:17:00,59.4,49.1,30.17,SSE,153,0.0,0.0,69,0.00,,,0.00,meteohub,2013-05-13 07:17:00,
2013-05-13 02:22:00,59.4,49.1,30.17,SSE,153,0.0,0.0,69,0.00,,,0.00,meteohub,2013-05-13 07:22:00,
2013-05-13 02:27:00,59.4,49.1,30.16,SSE,153,0.0,0.0,69,0.00,,,0.00,meteohub,2013-05-13 07:27:00,
2013-05-13 02:32:00,59.5,48.9,30.16,SSW,193,0.0,0.0,68,0.00,,,0.00,meteohub,2013-05-13 07:32:00,
2013-05-13 02:37:00,59.7,49.1,30.16,SSW,194,0.0,4.0,68,0.00,,,0.00,meteohub,2013-05-13 07:37:00,
2013-05-13 02:42:00,59.9,48.9,30.16,SSW,193,0.0,4.0,67,0.00,,,0.00,meteohub,2013-05-13 07:42:00,
2013-05-13 02:47:00,59.9,49.3,30.16,SSW,199,2.0,2.0,68,0.00,,,0.00,meteohub,2013-05-13 07:47:00,
2013-05-13 02:52:00,59.9,49.3,30.16,SSW,211,0.0,1.0,68,0.00,,,0.00,meteohub,2013-05-13 07:52:00,
2013-05-13 02:57:00,59.7,49.1,30.16,SSW,211,0.0,5.0,68,0.00,,,0.00,meteohub,2013-05-13 07:57:00,
2013-05-13 03:02:00,59.5,48.9,30.16,SSW,211,0.0,5.0,68,0.00,,,0.00,meteohub,2013-05-13 08:02:00,
2013-05-13 03:07:00,59.4,49.1,30.16,SSW,211,0.0,6.0,69,0.00,,,0.00,meteohub,2013-05-13 08:07:00,
2013-05-13 03:12:00,59.4,48.7,30.16,SSW,211,0.0,6.0,68,0.00,,,0.00,meteohub,2013-05-13 08:12:00,
2013-05-13 03:17:00,59.2,48.6,30.16,SSW,212,0.0,4.0,68,0.00,,,0.00,meteohub,2013-05-13 08:17:00,
2013-05-13 03:22:00,59.2,48.6,30.16,SSW,212,0.0,4.0,68,0.00,,,0.00,meteohub,2013-05-13 08:22:00,
2013-05-13 03:28:00,58.8,48.7,30.16,SSW,213,0.0,2.0,69,0.00,,,0.00,meteohub,2013-05-13 08:28:00,
2013-05-13 03:33:00,58.6,48.6,30.16,SSW,213,0.0,2.0,69,0.00,,,0.00,meteohub,2013-05-13 08:33:00,
2013-05-13 03:38:00,58.5,48.7,30.16,SSW,213,0.0,0.0,70,0.00,,,0.00,meteohub,2013-05-13 08:38:00,
2013-05-13 03:43:00,58.3,48.6,30.16,SSW,213,0.0,0.0,70,0.00,,,0.00,meteohub,2013-05-13 08:43:00,
2013-05-13 03:48:00,58.3,48.6,30.16,SSW,213,0.0,0.0,70,0.00,,,0.00,meteohub,2013-05-13 08:48:00,
2013-05-13 03:53:00,58.1,48.4,30.15,SSW,213,0.0,0.0,70,0.00,,,0.00,meteohub,2013-05-13 08:53:00,
2013-05-13 03:58:00,57.9,48.2,30.15,SSW,213,0.0,0.0,70,0.00,,,0.00,meteohub,2013-05-13 08:58:00,
2013-05-13 04:03:00,57.7,48.0,30.15,SSW,213,0.0,0.0,70,0.00,,,0.00,meteohub,2013-05-13 09:03:00,
2013-05-13 04:08:00,57.7,48.0,30.15,SSW,213,0.0,0.0,70,0.00,,,0.00,meteohub,2013-05-13 09:08:00,
2013-05-13 04:13:00,57.6,47.8,30.15,SSW,213,0.0,0.0,70,0.00,,,0.00,meteohub,2013-05-13 09:13:00,
2013-05-13 04:18:00,57.6,47.8,30.15,SW,214,0.0,0.0,70,0.00,,,0.00,meteohub,2013-05-13 09:18:00,
2013-05-13 04:23:00,57.4,47.7,30.15,SW,214,0.0,0.0,70,0.00,,,0.00,meteohub,2013-05-13 09:23:00,
2013-05-13 04:28:00,57.6,47.5,30.16,SW,214,0.0,0.0,69,0.00,,,0.00,meteohub,2013-05-13 09:28:00,
2013-05-13 04:33:00,57.7,47.7,30.16,SW,215,0.0,0.0,69,0.00,,,0.00,meteohub,2013-05-13 09:33:00,
2013-05-13 04:38:00,57.9,47.8,30.16,SSW,213,0.0,0.0,69,0.00,,,0.00,meteohub,2013-05-13 09:38:00,
2013-05-13 04:43:00,57.9,47.8,30.15,SSW,213,0.0,0.0,69,0.00,,,0.00,meteohub,2013-05-13 09:43:00,
2013-05-13 04:48:00,57.7,47.7,30.15,SSW,213,0.0,0.0,69,0.00,,,0.00,meteohub,2013-05-13 09:48:00,
2013-05-13 04:53:00,57.7,47.7,30.15,SSW,213,0.0,0.0,69,0.00,,,0.00,meteohub,2013-05-13 09:53:00,
2013-05-13 04:58:00,57.7,47.3,30.15,SSW,213,0.0,0.0,68,0.00,,,0.00,meteohub,2013-05-13 09:58:00,
2013-05-13 05:03:00,57.7,47.7,30.15,SSW,213,0.0,0.0,69,0.00,,,0.00,meteohub,2013-05-13 10:03:00,
2013-05-13 05:08:00,57.7,47.7,30.15,SSW,213,0.0,0.0,69,0.00,,,0.00,meteohub,2013-05-13 10:08:00,
2013-05-13 05:13:00,57.6,47.5,30.15,SSW,213,0.0,0.0,69,0.00,,,0.00,meteohub,2013-05-13 10:13:00,
2013-05-13 05:18:00,57.6,47.5,30.15,SSW,213,0.0,0.0,69,0.00,,,0.00,meteohub,2013-05-13 10:18:00,
2013-05-13 05:23:00,57.6,47.8,30.15,SSW,213,0.0,0.0,70,0.00,,,0.00,meteohub,2013-05-13 10:23:00,
2013-05-13 05:28:00,57.2,47.5,30.15,SSW,213,0.0,0.0,70,0.00,,,0.00,meteohub,2013-05-13 10:28:00,
2013-05-13 05:33:00,56.8,47.5,30.15,SSW,213,0.0,0.0,71,0.00,,,0.00,meteohub,2013-05-13 10:33:00,
2013-05-13 05:38:00,56.7,47.3,30.16,SSW,213,0.0,0.0,71,0.00,,,0.00,meteohub,2013-05-13 10:38:00,
2013-05-13 05:43:00,56.5,47.5,30.16,SSW,213,0.0,0.0,72,0.00,,,0.00,meteohub,2013-05-13 10:43:00,
2013-05-13 05:48:00,56.1,47.7,30.16,SSW,213,0.0,0.0,73,0.00,,,0.00,meteohub,2013-05-13 10:48:00,
2013-05-13 05:53:00,55.9,47.5,30.16,SSW,213,0.0,0.0,73,0.00,,,0.00,meteohub,2013-05-13 10:53:00,
2013-05-13 05:58:00,55.9,47.5,30.16,SSW,213,0.0,0.0,73,0.00,,,0.00,meteohub,2013-05-13 10:58:00,
2013-05-13 06:03:00,55.8,47.3,30.16,SSW,213,0.0,0.0,73,0.00,,,0.00,meteohub,2013-05-13 11:03:00,
2013-05-13 06:08:00,55.8,47.3,30.17,SSW,213,0.0,0.0,73,0.00,,,0.00,meteohub,2013-05-13 11:08:00,
2013-05-13 06:13:00,55.8,47.3,30.17,SSW,213,0.0,0.0,73,0.00,,,0.00,meteohub,2013-05-13 11:13:00,
2013-05-13 06:18:00,55.8,47.7,30.17,SSW,213,0.0,0.0,74,0.00,,,0.00,meteohub,2013-05-13 11:18:00,
2013-05-13 06:23:00,55.6,47.8,30.17,SSW,213,0.0,0.0,75,0.00,,,0.00,meteohub,2013-05-13 11:23:00,
2013-05-13 06:28:00,55.2,48.2,30.17,SSW,213,0.0,0.0,77,0.00,,,0.00,meteohub,2013-05-13 11:28:00,
2013-05-13 06:33:00,54.9,48.2,30.17,SSW,213,0.0,0.0,78,0.00,,,0.00,meteohub,2013-05-13 11:33:00,
2013-05-13 06:38:00,54.7,48.4,30.17,SSW,213,0.0,0.0,79,0.00,,,0.00,meteohub,2013-05-13 11:38:00,
2013-05-13 06:43:00,54.1,47.8,30.17,SSW,213,0.0,0.0,79,0.00,,,0.00,meteohub,2013-05-13 11:43:00,
2013-05-13 06:48:00,54.0,48.0,30.17,SSW,213,0.0,0.0,80,0.00,,,0.00,meteohub,2013-05-13 11:48:00,
2013-05-13 06:53:00,53.8,48.0,30.17,SSW,213,0.0,0.0,81,0.00,,,0.00,meteohub,2013-05-13 11:53:00,
2013-05-13 06:58:00,53.4,47.7,30.17,SSW,213,0.0,0.0,81,0.00,,,0.00,meteohub,2013-05-13 11:58:00,
2013-05-13 07:03:00,53.2,47.8,30.18,SSW,213,0.0,0.0,82,0.00,,,0.00,meteohub,2013-05-13 12:03:00,
2013-05-13 07:08:00,53.4,48.4,30.17,SSW,213,0.0,0.0,83,0.00,,,0.00,meteohub,2013-05-13 12:08:00,
2013-05-13 07:13:00,53.6,48.6,30.18,SSW,213,0.0,0.0,83,0.00,,,0.00,meteohub,2013-05-13 12:13:00,
2013-05-13 07:19:00,54.0,48.9,30.18,SSW,213,0.0,0.0,83,0.00,,,0.00,meteohub,2013-05-13 12:19:00,
2013-05-13 07:24:00,54.7,49.3,30.18,SSW,213,0.0,0.0,82,0.00,,,0.00,meteohub,2013-05-13 12:24:00,
2013-05-13 07:29:00,55.2,49.5,30.18,SSW,213,0.0,0.0,81,0.00,,,0.00,meteohub,2013-05-13 12:29:00,
2013-05-13 07:34:00,55.9,49.5,30.18,SSW,213,0.0,0.0,79,0.00,,,0.00,meteohub,2013-05-13 12:34:00,
2013-05-13 07:39:00,56.7,49.5,30.18,SSW,213,0.0,0.0,77,0.00,,,0.00,meteohub,2013-05-13 12:39:00,
2013-05-13 07:44:00,57.6,49.6,30.18,SSW,213,0.0,0.0,75,0.00,,,0.00,meteohub,2013-05-13 12:44:00,
2013-05-13 07:49:00,58.3,50.0,30.18,SSW,213,0.0,0.0,74,0.00,,,0.00,meteohub,2013-05-13 12:49:00,
2013-05-13 07:54:00,59.0,49.6,30.19,SSW,213,0.0,0.0,71,0.00,,,0.00,meteohub,2013-05-13 12:54:00,
2013-05-13 07:59:00,59.4,48.4,30.19,SSW,213,0.0,0.0,67,0.00,,,0.00,meteohub,2013-05-13 12:59:00,
2013-05-13 08:04:00,59.7,48.4,30.19,SSW,213,0.0,0.0,66,0.00,,,0.00,meteohub,2013-05-13 13:04:00,
2013-05-13 08:09:00,60.1,48.2,30.19,SSW,213,0.0,0.0,65,0.00,,,0.00,meteohub,2013-05-13 13:09:00,
2013-05-13 08:14:00,60.4,48.2,30.19,SW,224,2.0,0.0,64,0.00,,,0.00,meteohub,2013-05-13 13:14:00,
2013-05-13 08:19:00,60.8,48.6,30.19,SW,224,0.0,3.0,64,0.00,,,0.00,meteohub,2013-05-13 13:19:00,
2013-05-13 08:24:00,61.2,48.4,30.19,SW,224,0.0,3.0,63,0.00,,,0.00,meteohub,2013-05-13 13:24:00,
2013-05-13 08:29:00,61.5,48.4,30.19,SW,227,4.0,4.0,62,0.00,,,0.00,meteohub,2013-05-13 13:29:00,
2013-05-13 08:34:00,61.9,48.2,30.19,SW,229,0.0,3.0,61,0.00,,,0.00,meteohub,2013-05-13 13:34:00,
2013-05-13 08:39:00,62.1,48.4,30.20,SW,230,0.0,3.0,61,0.00,,,0.00,meteohub,2013-05-13 13:39:00,
2013-05-13 08:44:00,62.2,49.1,30.19,SW,236,3.0,5.0,62,0.00,,,0.00,meteohub,2013-05-13 13:44:00,
2013-05-13 08:49:00,62.4,48.7,30.19,SW,234,2.0,5.0,61,0.00,,,0.00,meteohub,2013-05-13 13:49:00,
2013-05-13 08:54:00,63.1,49.5,30.19,SW,222,0.0,7.0,61,0.00,,,0.00,meteohub,2013-05-13 13:54:00,
2013-05-13 08:59:00,63.9,49.3,30.20,SW,223,0.0,7.0,59,0.00,,,0.00,meteohub,2013-05-13 13:59:00,
2013-05-13 09:04:00,64.2,49.1,30.20,WSW,244,4.0,7.0,58,0.00,,,0.00,meteohub,2013-05-13 14:04:00,
2013-05-13 09:09:00,64.9,49.8,30.20,SW,234,4.0,8.0,58,0.00,,,0.00,meteohub,2013-05-13 14:09:00,
2013-05-13 09:14:00,65.5,49.3,30.20,WSW,237,0.0,8.0,56,0.00,,,0.00,meteohub,2013-05-13 14:14:00,
2013-05-13 09:19:00,66.0,49.8,30.20,WSW,238,0.0,8.0,56,0.00,,,0.00,meteohub,2013-05-13 14:19:00,
2013-05-13 09:24:00,66.6,49.5,30.20,WSW,245,4.0,8.0,54,0.00,,,0.00,meteohub,2013-05-13 14:24:00,
2013-05-13 09:29:00,67.1,49.5,30.21,SW,234,4.0,8.0,53,0.00,,,0.00,meteohub,2013-05-13 14:29:00,
2013-05-13 09:34:00,67.6,49.5,30.21,WSW,258,6.0,10.0,52,0.00,,,0.00,meteohub,2013-05-13 14:34:00,
2013-05-13 09:39:00,68.2,49.8,30.20,WSW,244,0.0,10.0,52,0.00,,,0.00,meteohub,2013-05-13 14:39:00,
2013-05-13 09:44:00,68.5,49.6,30.21,WSW,241,4.0,10.0,51,0.00,,,0.00,meteohub,2013-05-13 14:44:00,
2013-05-13 09:49:00,69.1,50.2,30.21,SW,221,0.0,11.0,51,0.00,,,0.00,meteohub,2013-05-13 14:49:00,
2013-05-13 09:54:00,69.6,50.2,30.21,SW,232,6.0,11.0,50,0.00,,,0.00,meteohub,2013-05-13 14:54:00,
2013-05-13 09:59:00,70.2,50.2,30.21,SW,232,4.0,11.0,49,0.00,,,0.00,meteohub,2013-05-13 14:59:00,
2013-05-13 10:04:00,70.3,50.4,30.21,WSW,240,6.0,13.0,49,0.00,,,0.00,meteohub,2013-05-13 15:04:00,
2013-05-13 10:09:00,71.1,50.4,30.21,West,262,3.0,13.0,48,0.00,,,0.00,meteohub,2013-05-13 15:09:00,
2013-05-13 10:14:00,71.8,50.5,30.21,West,259,5.0,13.0,47,0.00,,,0.00,meteohub,2013-05-13 15:14:00,
2013-05-13 10:19:00,72.5,51.1,30.21,SW,234,4.0,11.0,47,0.00,,,0.00,meteohub,2013-05-13 15:19:00,
2013-05-13 10:24:00,73.2,51.3,30.21,SSW,197,4.0,11.0,46,0.00,,,0.00,meteohub,2013-05-13 15:24:00,
2013-05-13 10:29:00,73.4,50.7,30.21,WSW,256,0.0,10.0,45,0.00,,,0.00,meteohub,2013-05-13 15:29:00,
2013-05-13 10:34:00,73.6,50.4,30.21,WSW,241,0.0,10.0,44,0.00,,,0.00,meteohub,2013-05-13 15:34:00,
2013-05-13 10:39:00,73.8,50.5,30.21,SW,218,0.0,14.0,44,0.00,,,0.00,meteohub,2013-05-13 15:39:00,
2013-05-13 10:44:00,73.9,51.3,30.21,SW,230,4.0,14.0,45,0.00,,,0.00,meteohub,2013-05-13 15:44:00,
2013-05-13 10:49:00,74.7,51.3,30.21,SW,221,9.0,14.0,44,0.00,,,0.00,meteohub,2013-05-13 15:49:00,
2013-05-13 10:54:00,74.8,50.2,30.21,SW,236,11.0,14.0,42,0.00,,,0.00,meteohub,2013-05-13 15:54:00,
2013-05-13 10:59:00,75.0,51.1,30.21,WSW,246,2.0,14.0,43,0.00,,,0.00,meteohub,2013-05-13 15:59:00,
2013-05-13 11:05:00,75.7,50.4,30.21,SW,215,11.0,14.0,41,0.00,,,0.00,meteohub,2013-05-13 16:05:00,
2013-05-13 11:10:00,75.9,50.5,30.21,SW,236,3.0,16.0,41,0.00,,,0.00,meteohub,2013-05-13 16:10:00,
2013-05-13 11:15:00,75.9,50.5,30.21,WSW,238,6.0,16.0,41,0.00,,,0.00,meteohub,2013-05-13 16:15:00,
2013-05-13 11:20:00,76.1,50.7,30.21,SW,223,3.0,16.0,41,0.00,,,0.00,meteohub,2013-05-13 16:20:00,
2013-05-13 11:25:00,76.3,50.9,30.21,SSW,209,0.0,16.0,41,0.00,,,0.00,meteohub,2013-05-13 16:25:00,
2013-05-13 11:30:00,77.2,48.9,30.21,WSW,242,11.0,16.0,37,0.00,,,0.00,meteohub,2013-05-13 16:30:00,
2013-05-13 11:35:00,77.2,48.2,30.20,SW,236,2.0,11.0,36,0.00,,,0.00,meteohub,2013-05-13 16:35:00,
2013-05-13 11:40:00,77.5,46.9,30.20,SW,234,3.0,11.0,34,0.00,,,0.00,meteohub,2013-05-13 16:40:00,
2013-05-13 11:45:00,78.1,47.5,30.20,WSW,245,10.0,11.0,34,0.00,,,0.00,meteohub,2013-05-13 16:45:00,
2013-05-13 11:50:00,78.3,48.4,30.20,West,279,4.0,13.0,35,0.00,,,0.00,meteohub,2013-05-13 16:50:00,
2013-05-13 11:55:00,78.6,48.7,30.20,SSW,210,0.0,13.0,35,0.00,,,0.00,meteohub,2013-05-13 16:55:00,
2013-05-13 12:00:00,79.2,48.4,30.20,SW,234,2.0,12.0,34,0.00,,,0.00,meteohub,2013-05-13 17:00:00,
2013-05-13 12:05:00,79.0,48.9,30.20,SW,232,0.0,12.0,35,0.00,,,0.00,meteohub,2013-05-13 17:05:00,
2013-05-13 12:10:00,79.5,49.5,30.19,SSE,162,0.0,11.0,35,0.00,,,0.00,meteohub,2013-05-13 17:10:00,
2013-05-13 12:15:00,80.2,49.3,30.19,SSW,193,0.0,11.0,34,0.00,,,0.00,meteohub,2013-05-13 17:15:00,
2013-05-13 12:20:00,80.1,48.4,30.19,SW,220,8.0,11.0,33,0.00,,,0.00,meteohub,2013-05-13 17:20:00,
2013-05-13 12:25:00,79.7,48.0,30.19,WSW,250,3.0,11.0,33,0.00,,,0.00,meteohub,2013-05-13 17:25:00,
2013-05-13 12:30:00,79.9,46.6,30.19,SSW,206,5.0,13.0,31,0.00,,,0.00,meteohub,2013-05-13 17:30:00,
2013-05-13 12:35:00,80.4,46.9,30.18,WSW,238,3.0,13.0,31,0.00,,,0.00,meteohub,2013-05-13 17:35:00,
2013-05-13 12:40:00,80.8,45.5,30.18,SW,231,1.0,14.0,29,0.00,,,0.00,meteohub,2013-05-13 17:40:00,
2013-05-13 12:45:00,81.5,47.1,30.18,SSW,213,4.0,14.0,30,0.00,,,0.00,meteohub,2013-05-13 17:45:00,
2013-05-13 12:50:00,81.9,44.6,30.18,SSW,202,3.0,14.0,27,0.00,,,0.00,meteohub,2013-05-13 17:50:00,
2013-05-13 12:55:00,82.2,43.9,30.18,SW,231,4.0,14.0,26,0.00,,,0.00,meteohub,2013-05-13 17:55:00,
2013-05-13 13:00:00,82.6,45.1,30.18,SSW,200,0.0,11.0,27,0.00,,,0.00,meteohub,2013-05-13 18:00:00,
2013-05-13 13:05:00,83.1,43.7,30.17,SSW,197,0.0,11.0,25,0.00,,,0.00,meteohub,2013-05-13 18:05:00,
2013-05-13 13:10:00,83.7,43.0,30.17,SSW,213,4.0,11.0,24,0.00,,,0.00,meteohub,2013-05-13 18:10:00,
2013-05-13 13:15:00,83.5,43.0,30.17,SW,236,7.0,10.0,24,0.00,,,0.00,meteohub,2013-05-13 18:15:00,
2013-05-13 13:20:00,83.5,43.9,30.17,South,169,0.0,10.0,25,0.00,,,0.00,meteohub,2013-05-13 18:20:00,
2013-05-13 13:25:00,83.7,41.9,30.17,SW,219,0.0,13.0,23,0.00,,,0.00,meteohub,2013-05-13 18:25:00,
2013-05-13 13:30:00,83.8,42.1,30.16,SW,229,0.0,13.0,23,0.00,,,0.00,meteohub,2013-05-13 18:30:00,
2013-05-13 13:35:00,84.4,42.6,30.16,SE,141,4.0,6.0,23,0.00,,,0.00,meteohub,2013-05-13 18:35:00,
2013-05-13 13:40:00,84.4,42.6,30.16,SSW,213,1.0,6.0,23,0.00,,,0.00,meteohub,2013-05-13 18:40:00,
2013-05-13 13:45:00,84.7,42.8,30.16,SE,137,0.0,13.0,23,0.00,,,0.00,meteohub,2013-05-13 18:45:00,
2013-05-13 13:50:00,85.3,42.1,30.15,SSW,198,2.0,13.0,22,0.00,,,0.00,meteohub,2013-05-13 18:50:00,
2013-05-13 13:55:00,85.5,42.3,30.15,SW,234,8.0,13.0,22,0.00,,,0.00,meteohub,2013-05-13 18:55:00,
2013-05-13 14:01:00,85.3,42.1,30.15,WSW,249,4.0,13.0,22,0.00,,,0.00,meteohub,2013-05-13 19:01:00,
2013-05-13 14:06:00,84.7,41.7,30.15,SW,224,0.0,12.0,22,0.00,,,0.00,meteohub,2013-05-13 19:06:00,
2013-05-13 14:11:00,84.9,43.0,30.14,SW,229,0.0,12.0,23,0.00,,,0.00,meteohub,2013-05-13 19:11:00,
2013-05-13 14:16:00,85.6,43.5,30.14,SSW,206,0.0,11.0,23,0.00,,,0.00,meteohub,2013-05-13 19:16:00,
2013-05-13 14:21:00,86.0,43.9,30.15,South,173,4.0,11.0,23,0.00,,,0.00,meteohub,2013-05-13 19:21:00,
2013-05-13 14:26:00,86.2,44.1,30.14,SW,234,0.0,17.0,23,0.00,,,0.00,meteohub,2013-05-13 19:26:00,
2013-05-13 14:31:00,86.4,43.0,30.14,ESE,121,0.0,17.0,22,0.00,,,0.00,meteohub,2013-05-13 19:31:00,
2013-05-13 14:36:00,86.4,43.0,30.13,WSW,238,8.0,10.0,22,0.00,,,0.00,meteohub,2013-05-13 19:36:00,
2013-05-13 14:41:00,86.0,42.8,30.13,SW,230,0.0,10.0,22,0.00,,,0.00,meteohub,2013-05-13 19:41:00,
2013-05-13 14:46:00,86.2,42.8,30.13,SE,137,0.0,13.0,22,0.00,,,0.00,meteohub,2013-05-13 19:46:00,
2013-05-13 14:51:00,86.4,43.0,30.12,SW,232,0.0,13.0,22,0.00,,,0.00,meteohub,2013-05-13 19:51:00,
2013-05-13 14:56:00,86.9,43.5,30.12,SW,225,4.0,8.0,22,0.00,,,0.00,meteohub,2013-05-13 19:56:00,
2013-05-13 15:01:00,87.3,41.4,30.12,South,182,5.0,8.0,20,0.00,,,0.00,meteohub,2013-05-13 20:01:00,
2013-05-13 15:06:00,87.3,41.4,30.12,SSW,195,1.0,15.0,20,0.00,,,0.00,meteohub,2013-05-13 20:06:00,
2013-05-13 15:11:00,87.3,39.9,30.12,SSW,193,0.0,15.0,19,0.00,,,0.00,meteohub,2013-05-13 20:11:00,
2013-05-13 15:16:00,87.1,41.2,30.12,SSE,153,0.0,15.0,20,0.00,,,0.00,meteohub,2013-05-13 20:16:00,
2013-05-13 15:21:00,87.1,41.2,30.11,ESE,115,4.0,15.0,20,0.00,,,0.00,meteohub,2013-05-13 20:21:00,
2013-05-13 15:26:00,87.3,41.4,30.11,SSW,207,2.0,14.0,20,0.00,,,0.00,meteohub,2013-05-13 20:26:00,
2013-05-13 15:31:00,87.3,38.7,30.11,SE,134,1.0,14.0,18,0.00,,,0.00,meteohub,2013-05-13 20:31:00,
2013-05-13 15:36:00,87.3,39.9,30.11,South,188,2.0,13.0,19,0.00,,,0.00,meteohub,2013-05-13 20:36:00,
2013-05-13 15:41:00,87.1,39.7,30.10,SSE,165,0.0,13.0,19,0.00,,,0.00,meteohub,2013-05-13 20:41:00,
2013-05-13 15:46:00,87.1,38.5,30.10,SSE,168,0.0,13.0,18,0.00,,,0.00,meteohub,2013-05-13 20:46:00,
2013-05-13 15:51:00,87.3,39.9,30.10,SW,221,0.0,13.0,19,0.00,,,0.00,meteohub,2013-05-13 20:51:00,
2013-05-13 15:56:00,87.8,40.5,30.09,SE,131,0.0,12.0,19,0.00,,,0.00,meteohub,2013-05-13 20:56:00,
2013-05-13 16:01:00,88.2,39.4,30.09,SSE,166,0.0,12.0,18,0.00,,,0.00,meteohub,2013-05-13 21:01:00,
2013-05-13 16:07:00,88.3,40.8,30.09,South,182,0.0,11.0,19,0.00,,,0.00,meteohub,2013-05-13 21:07:00,
2013-05-13 16:12:00,88.2,39.4,30.09,SE,138,0.0,11.0,18,0.00,,,0.00,meteohub,2013-05-13 21:12:00,
2013-05-13 16:17:00,88.2,39.4,30.09,SSE,163,10.0,12.0,18,0.00,,,0.00,meteohub,2013-05-13 21:17:00,
2013-05-13 16:22:00,88.0,39.2,30.09,WSW,239,0.0,12.0,18,0.00,,,0.00,meteohub,2013-05-13 21:22:00,
2013-05-13 16:27:00,88.2,37.9,30.08,South,183,2.0,12.0,17,0.00,,,0.00,meteohub,2013-05-13 21:27:00,
2013-05-13 16:32:00,88.2,39.4,30.09,South,186,0.0,12.0,18,0.00,,,0.00,meteohub,2013-05-13 21:32:00,
2013-05-13 16:37:00,88.2,37.9,30.08,SE,139,2.0,11.0,17,0.00,,,0.00,meteohub,2013-05-13 21:37:00,
2013-05-13 16:42:00,88.2,37.9,30.08,South,176,0.0,11.0,17,0.00,,,0.00,meteohub,2013-05-13 21:42:00,
2013-05-13 16:47:00,88.2,37.9,30.08,SSW,192,0.0,12.0,17,0.00,,,0.00,meteohub,2013-05-13 21:47:00,
2013-05-13 16:52:00,87.8,39.0,30.07,SSE,161,10.0,12.0,18,0.00,,,0.00,meteohub,2013-05-13 21:52:00,
2013-05-13 16:57:00,87.8,37.6,30.07,SE,124,8.0,12.0,17,0.00,,,0.00,meteohub,2013-05-13 21:57:00,
2013-05-13 17:02:00,88.0,37.8,30.08,SE,137,11.0,12.0,17,0.00,,,0.00,meteohub,2013-05-13 22:02:00,
2013-05-13 17:07:00,87.6,37.4,30.06,South,189,0.0,14.0,17,0.00,,,0.00,meteohub,2013-05-13 22:07:00,
2013-05-13 17:12:00,88.0,39.2,30.06,ESE,114,0.0,14.0,18,0.00,,,0.00,meteohub,2013-05-13 22:12:00,
2013-05-13 17:17:00,88.2,37.9,30.06,SSE,164,0.0,14.0,17,0.00,,,0.00,meteohub,2013-05-13 22:17:00,
2013-05-13 17:22:00,88.0,37.8,30.06,South,173,4.0,14.0,17,0.00,,,0.00,meteohub,2013-05-13 22:22:00,
2013-05-13 17:27:00,87.8,37.6,30.06,SSE,152,0.0,17.0,17,0.00,,,0.00,meteohub,2013-05-13 22:27:00,
2013-05-13 17:32:00,88.0,37.8,30.06,SSE,150,0.0,17.0,17,0.00,,,0.00,meteohub,2013-05-13 22:32:00,
2013-05-13 17:37:00,88.3,36.5,30.06,SSE,150,7.0,17.0,16,0.00,,,0.00,meteohub,2013-05-13 22:37:00,
2013-05-13 17:42:00,88.2,37.9,30.06,SSE,153,6.0,17.0,17,0.00,,,0.00,meteohub,2013-05-13 22:42:00,
2013-05-13 17:47:00,88.0,36.1,30.06,SE,142,1.0,13.0,16,0.00,,,0.00,meteohub,2013-05-13 22:47:00,
2013-05-13 17:52:00,87.8,36.0,30.06,SW,232,0.0,13.0,16,0.00,,,0.00,meteohub,2013-05-13 22:52:00,
2013-05-13 17:57:00,88.0,36.1,30.06,SE,146,4.0,13.0,16,0.00,,,0.00,meteohub,2013-05-13 22:57:00,
2013-05-13 18:02:00,88.0,37.8,30.05,South,189,0.0,13.0,17,0.00,,,0.00,meteohub,2013-05-13 23:02:00,
2013-05-13 18:07:00,88.0,36.1,30.05,SSE,165,0.0,9.0,16,0.00,,,0.00,meteohub,2013-05-13 23:07:00,
2013-05-13 18:12:00,88.2,39.4,30.05,SSE,154,2.0,9.0,18,0.00,,,0.00,meteohub,2013-05-13 23:12:00,
2013-05-13 18:17:00,88.0,39.2,30.05,SE,139,0.0,9.0,18,0.00,,,0.00,meteohub,2013-05-13 23:17:00,
2013-05-13 18:22:00,87.6,40.3,30.05,SSE,150,2.0,9.0,19,0.00,,,0.00,meteohub,2013-05-13 23:22:00,
2013-05-13 18:27:00,87.3,39.9,30.05,SE,131,1.0,9.0,19,0.00,,,0.00,meteohub,2013-05-13 23:27:00,
2013-05-13 18:32:00,87.1,41.2,30.05,SE,137,0.0,12.0,20,0.00,,,0.00,meteohub,2013-05-13 23:32:00,
2013-05-13 18:37:00,86.9,38.3,30.05,SSE,151,5.0,12.0,18,0.00,,,0.00,meteohub,2013-05-13 23:37:00,
2013-05-13 18:42:00,86.7,39.6,30.05,SSE,156,0.0,14.0,19,0.00,,,0.00,meteohub,2013-05-13 23:42:00,
2013-05-13 18:47:00,86.7,39.6,30.05,SE,128,0.0,14.0,19,0.00,,,0.00,meteohub,2013-05-13 23:47:00,
2013-05-13 18:52:00,86.7,39.6,30.05,SSE,148,0.0,14.0,19,0.00,,,0.00,meteohub,2013-05-13 23:52:00,
2013-05-13 18:57:00,86.7,40.8,30.05,ESE,119,7.0,14.0,20,0.00,,,0.00,meteohub,2013-05-13 23:57:00,
2013-05-13 19:02:00,86.5,40.6,30.04,SSE,155,7.0,9.0,20,0.00,,,0.00,meteohub,2013-05-14 00:02:00,
2013-05-13 19:07:00,86.4,40.6,30.04,SSE,157,1.0,12.0,20,0.00,,,0.00,meteohub,2013-05-14 00:07:00,
2013-05-13 19:12:00,86.0,40.3,30.04,SE,125,7.0,12.0,20,0.00,,,0.00,meteohub,2013-05-14 00:12:00,
2013-05-13 19:17:00,85.6,41.2,30.04,South,169,8.0,12.0,21,0.00,,,0.00,meteohub,2013-05-14 00:17:00,
2013-05-13 19:22:00,85.3,39.7,30.04,ESE,123,0.0,12.0,20,0.00,,,0.00,meteohub,2013-05-14 00:22:00,
2013-05-13 19:27:00,85.1,40.8,30.04,ESE,117,7.0,14.0,21,0.00,,,0.00,meteohub,2013-05-14 00:27:00,
2013-05-13 19:32:00,84.9,41.9,30.04,East,92,0.0,14.0,22,0.00,,,0.00,meteohub,2013-05-14 00:32:00,
2013-05-13 19:37:00,84.7,40.5,30.04,ESE,116,7.0,11.0,21,0.00,,,0.00,meteohub,2013-05-14 00:37:00,
2013-05-13 19:42:00,84.6,41.5,30.04,ESE,111,6.0,11.0,22,0.00,,,0.00,meteohub,2013-05-14 00:42:00,
2013-05-13 19:47:00,84.0,39.9,30.04,South,178,0.0,12.0,21,0.00,,,0.00,meteohub,2013-05-14 00:47:00,
2013-05-13 19:52:00,83.8,41.0,30.05,South,174,4.0,12.0,22,0.00,,,0.00,meteohub,2013-05-14 00:52:00,
2013-05-13 19:57:00,83.5,40.6,30.05,ESE,117,0.0,12.0,22,0.00,,,0.00,meteohub,2013-05-14 00:57:00,
2013-05-13 20:02:00,83.1,41.5,30.05,SE,129,0.0,12.0,23,0.00,,,0.00,meteohub,2013-05-14 01:02:00,
2013-05-13 20:07:00,82.8,41.2,30.05,SE,136,0.0,9.0,23,0.00,,,0.00,meteohub,2013-05-14 01:07:00,
2013-05-13 20:12:00,82.4,41.9,30.05,SE,125,1.0,9.0,24,0.00,,,0.00,meteohub,2013-05-14 01:12:00,
2013-05-13 20:17:00,81.9,41.5,30.05,ESE,105,4.0,10.0,24,0.00,,,0.00,meteohub,2013-05-14 01:17:00,
2013-05-13 20:22:00,81.3,42.1,30.05,SE,126,4.0,10.0,25,0.00,,,0.00,meteohub,2013-05-14 01:22:00,
2013-05-13 20:27:00,81.0,41.9,30.05,ESE,104,0.0,11.0,25,0.00,,,0.00,meteohub,2013-05-14 01:27:00,
2013-05-13 20:32:00,80.4,42.4,30.05,ESE,119,0.0,11.0,26,0.00,,,0.00,meteohub,2013-05-14 01:32:00,
2013-05-13 20:37:00,79.9,41.9,30.05,ESE,109,0.0,11.0,26,0.00,,,0.00,meteohub,2013-05-14 01:37:00,
2013-05-13 20:43:00,79.3,42.4,30.06,SSE,153,0.0,11.0,27,0.00,,,0.00,meteohub,2013-05-14 01:43:00,
2013-05-13 20:48:00,79.0,43.2,30.06,SE,126,1.0,9.0,28,0.00,,,0.00,meteohub,2013-05-14 01:48:00,
2013-05-13 20:53:00,78.4,42.6,30.06,ESE,115,2.0,9.0,28,0.00,,,0.00,meteohub,2013-05-14 01:53:00,
2013-05-13 20:58:00,78.1,42.3,30.06,SE,124,5.0,8.0,28,0.00,,,0.00,meteohub,2013-05-14 01:58:00,
2013-05-13 21:03:00,77.7,43.0,30.06,ESE,121,0.0,8.0,29,0.00,,,0.00,meteohub,2013-05-14 02:03:00,
2013-05-13 21:08:00,77.5,42.8,30.07,ESE,118,7.0,9.0,29,0.00,,,0.00,meteohub,2013-05-14 02:08:00,
2013-05-13 21:13:00,77.2,43.3,30.07,East,79,0.0,9.0,30,0.00,,,0.00,meteohub,2013-05-14 02:13:00,
2013-05-13 21:18:00,76.8,43.0,30.07,SE,136,0.0,9.0,30,0.00,,,0.00,meteohub,2013-05-14 02:18:00,
2013-05-13 21:23:00,76.5,43.5,30.07,ESE,120,0.0,9.0,31,0.00,,,0.00,meteohub,2013-05-14 02:23:00,
2013-05-13 21:28:00,75.9,43.9,30.07,ESE,122,2.0,7.0,32,0.00,,,0.00,meteohub,2013-05-14 02:28:00,
2013-05-13 21:33:00,75.7,44.6,30.08,ESE,118,1.0,7.0,33,0.00,,,0.00,meteohub,2013-05-14 02:33:00,
2013-05-13 21:38:00,75.4,44.2,30.08,ESE,121,0.0,7.0,33,0.00,,,0.00,meteohub,2013-05-14 02:38:00,
2013-05-13 21:43:00,74.8,44.6,30.08,SE,128,0.0,7.0,34,0.00,,,0.00,meteohub,2013-05-14 02:43:00,
2013-05-13 21:48:00,74.5,45.0,30.09,ESE,113,1.0,6.0,35,0.00,,,0.00,meteohub,2013-05-14 02:48:00,
2013-05-13 21:53:00,74.1,45.5,30.08,SE,136,0.0,6.0,36,0.00,,,0.00,meteohub,2013-05-14 02:53:00,
2013-05-13 21:58:00,73.8,45.1,30.09,SE,142,0.0,6.0,36,0.00,,,0.00,meteohub,2013-05-14 02:58:00,
2013-05-13 22:03:00,73.6,45.7,30.09,SE,128,4.0,6.0,37,0.00,,,0.00,meteohub,2013-05-14 03:03:00,
2013-05-13 22:08:00,73.2,45.3,30.09,SE,135,0.0,6.0,37,0.00,,,0.00,meteohub,2013-05-14 03:08:00,
2013-05-13 22:13:00,72.9,45.1,30.09,SE,146,1.0,6.0,37,0.00,,,0.00,meteohub,2013-05-14 03:13:00,
2013-05-13 22:18:00,72.7,45.7,30.10,SE,134,0.0,8.0,38,0.00,,,0.00,meteohub,2013-05-14 03:18:00,
2013-05-13 22:23:00,72.3,46.0,30.09,SE,131,0.0,8.0,39,0.00,,,0.00,meteohub,2013-05-14 03:23:00,
2013-05-13 22:28:00,72.1,46.4,30.10,South,181,0.0,8.0,40,0.00,,,0.00,meteohub,2013-05-14 03:28:00,
2013-05-13 22:33:00,71.8,46.8,30.10,SE,129,5.0,8.0,41,0.00,,,0.00,meteohub,2013-05-14 03:33:00,
2013-05-13 22:38:00,71.6,47.3,30.10,SSE,157,0.0,7.0,42,0.00,,,0.00,meteohub,2013-05-14 03:38:00,
2013-05-13 22:43:00,71.4,47.1,30.10,SE,143,1.0,7.0,42,0.00,,,0.00,meteohub,2013-05-14 03:43:00,
2013-05-13 22:48:00,71.2,48.2,30.10,South,172,2.0,7.0,44,0.00,,,0.00,meteohub,2013-05-14 03:48:00,
2013-05-13 22:53:00,71.1,48.6,30.10,ESE,115,6.0,7.0,45,0.00,,,0.00,meteohub,2013-05-14 03:53:00,
2013-05-13 22:58:00,71.1,48.6,30.10,South,184,3.0,10.0,45,0.00,,,0.00,meteohub,2013-05-14 03:58:00,
2013-05-13 23:01:00,71.1,48.6,30.10,ESE,118,1.0,10.0,45,0.00,,,0.00,meteohub,2013-05-14 04:01:00,
2013-05-13 23:02:00,71.1,48.6,30.10,SSE,153,0.0,10.0,45,0.00,,,0.00,meteohub,2013-05-14 04:02:00,
2013-05-13 23:07:00,70.9,48.6,30.10,SSE,165,0.0,11.0,45,0.00,,,0.00,meteohub,2013-05-14 04:07:00,
2013-05-13 23:12:00,70.9,48.6,30.10,SSE,153,4.0,11.0,45,0.00,,,0.00,meteohub,2013-05-14 04:12:00,
2013-05-13 23:17:00,70.7,48.9,30.10,ESE,115,1.0,9.0,46,0.00,,,0.00,meteohub,2013-05-14 04:17:00,
2013-05-13 23:22:00,70.5,48.7,30.10,SSE,159,0.0,9.0,46,0.00,,,0.00,meteohub,2013-05-14 04:22:00,
2013-05-13 23:27:00,70.3,48.6,30.10,ESE,111,1.0,10.0,46,0.00,,,0.00,meteohub,2013-05-14 04:27:00,
2013-05-13 23:32:00,70.2,48.9,30.10,ESE,112,0.0,10.0,47,0.00,,,0.00,meteohub,2013-05-14 04:32:00,
2013-05-13 23:37:00,70.0,48.7,30.10,SE,128,0.0,8.0,47,0.00,,,0.00,meteohub,2013-05-14 04:37:00,
2013-05-13 23:42:00,69.6,49.1,30.10,SSE,166,4.0,8.0,48,0.00,,,0.00,meteohub,2013-05-14 04:42:00,
2013-05-13 23:47:00,69.4,48.9,30.10,SE,144,0.0,9.0,48,0.00,,,0.00,meteohub,2013-05-14 04:47:00,
2013-05-13 23:52:00,69.3,48.7,30.10,South,173,0.0,9.0,48,0.00,,,0.00,meteohub,2013-05-14 04:52:00,
2013-05-13 23:57:00,69.3,49.3,30.10,SE,144,0.0,7.0,49,0.00,,,0.00,meteohub,2013-05-14 04:57:00,